Regional Weather Roundup
Issued by NWS

Home | Current Version | Previous Version | Text Only | Print | Product List | Glossary Off
Versions: 1 2 3 4 5 6 7 8 9 10 11 12 13 14 15 16 17 18 19 20 21 22 23 24 25 26 27 28 29 30 31 32 33 34 35 36 37 38 39 40 41 42 43 44 45 46 47 48 49 50

000
ASUS43 KLOT 140600
RWRIL

ILLINOIS REGIONAL WEATHER ROUNDUP
NATIONAL WEATHER SERVICE CHICAGO/ROMEOVILLE IL
100 AM CDT MON JUL 14 2014

NOTE: "FAIR" INDICATES FEW OR NO CLOUDS BELOW 12,000 FEET WITH NO
SIGNIFICANT WEATHER AND/OR OBSTRUCTIONS TO VISIBILITY.

* THESE STATIONS ARE NOT UNDER NWS QUALITY CONTROL. THEY ALSO MAY NOT
  REPORT WEATHER SUCH AS PRECIPITATION OR FOG.

ILZ001-002-007-009-015-016-024-140700-
NORTHWEST ILLINOIS

CITY           SKY/WX    TMP DP  RH WIND       PRES   REMARKS
MOLINE         CLEAR     65  63  93 CALM      29.92S
6HR MIN TEMP:  65; 6HR MAX TEMP:  74;

STERLING*        N/A     63  61  94 CALM      29.93S VSB 1/4
$$

ILZ003-004-008-010-011-017-018-140700-
NORTH CENTRAL ILLINOIS

CITY           SKY/WX    TMP DP  RH WIND       PRES   REMARKS
ROCKFORD       PTCLDY    64  54  69 CALM      29.93R
6HR MIN TEMP:  63; 6HR MAX TEMP:  81;

FREEPORT*      CLEAR     57  55  92 CALM      29.94F
$$

ILZ005-006-012>014-019>023-140700-
NORTHEAST ILLINOIS

CITY           SKY/WX    TMP DP  RH WIND       PRES   REMARKS
CHICAGO-OHARE  PTCLDY    70  50  49 W8        29.91R
6HR MIN TEMP:  70; 6HR MAX TEMP:  81; 6HR PCP:  0.01;

CHICAGO-MIDWAY PTCLDY    73  58  59 W7        29.90S
6HR MIN TEMP:  73; 6HR MAX TEMP:  83;

AURORA         PTCLDY    65  61  87 CALM      29.93R
6HR MIN TEMP:  64; 6HR MAX TEMP:  75; 6HR PCP: TRACE;

LANSING*       MOCLDY    70  64  79 W6        29.91S
WAUKEGAN       CLEAR     64  60  87 W3        29.90S
6HR MIN TEMP:  63; 6HR MAX TEMP:  80;

DUPAGE AIRPORT PTCLDY    68  52  56 NW6       29.91S
6HR MIN TEMP:  68; 6HR MAX TEMP:  80;

WHEELING       CLEAR     69  51  52 NW8       29.92R
6HR MIN TEMP:  69; 6HR MAX TEMP:  83;

NORTHERLY ISL    N/A     73  49  42 W8          N/A
$$

LMZ740>746-140700-
SOUTHERN LAKE MICHIGAN

STATION/POSITION SKY/WX   TEMP    WIND        PRES    VSBY  WAVE
                          AIR SEA DIR/SP/G                  HT/PER
                          (F)     (DEG/KT/KT) (MB)    (MI)  (FT/S)
SOUTHERN BUOY              67 64  320/  4/  4 1011.9S         1
WAUKEGAN HARBOR            69     310/  5/  6 1013.5S
HARRISON CRIB              75     290/ 14/ 16   N/A
BURNHAM HARBOR             73     300/  7/ 11   N/A
CALUMET HARBOR             73     270/  4/  6 1013.3S
MICHIGAN CITY              74     220/ 16/ 17   N/A
$$

ILZ025>027-034>036-040-047-049-050-058-095>099-140700-
WEST-CENTRAL ILLINOIS

CITY           SKY/WX    TMP DP  RH WIND       PRES   REMARKS
QUINCY         CLEAR     71  68  90 CALM      29.93F
GALESBURG*     CLOUDY    67  65  94 CALM      29.94S
MACOMB*        MOCLDY    67  66  96 CALM      29.95F
$$

ILZ028>032-037-038-041>044-048-051>054-059>061-140700-
CENTRAL ILLINOIS

CITY           SKY/WX    TMP DP  RH WIND       PRES   REMARKS
DECATUR        PTCLDY    71  68  90 CALM      29.93F
PEORIA         MOCLDY    71  66  84 CALM      29.92F
6HR MIN TEMP:  71; 6HR MAX TEMP:  81; 6HR PCP: TRACE;

SPRINGFIELD    PTCLDY    70  68  93 W3        29.93F
6HR MIN TEMP:  70; 6HR MAX TEMP:  85;

TAYLORVILLE    NOT AVBL
$$

ILZ033-039-045-046-055>057-062-063-140700-
EAST-CENTRAL ILLINOIS

CITY           SKY/WX    TMP DP  RH WIND       PRES   REMARKS
CHAMPAIGN      PTCLDY    70  69  97 NW7       29.92F
MATTOON        CLOUDY    74  71  91 W3        29.92R
$$

ILZ079-100>102-140700-
SOUTHWEST ILLINOIS

CITY           SKY/WX    TMP DP  RH WIND       PRES   REMARKS
BELLEVILLE     LGT RAIN  73  73  99 S5        29.94S
CAHOKIA*       LGT RAIN  74  71  91 S5        29.93F
SPARTA*        TSTM      72  70  94 SW3       29.97S
$$

ILZ064>066-069>071-074>076-080>082-084>086-088>090-092>094-140700-
SOUTH-CENTRAL ILLINOIS

CITY           SKY/WX    TMP DP  RH WIND       PRES   REMARKS
CARBONDALE     CLOUDY    73  71  93 NE6       29.95R
6HR MIN TEMP:  73; 6HR MAX TEMP:  88; 6HR PCP:  0.14;

MT. VERNON     CLOUDY    73  68  83 S17       29.96R
SALEM*         CLOUDY    74  73  94 W5        29.94S
$$

ILZ067-068-072-073-078-083-087-091-140700-
SOUTHEAST ILLINOIS

CITY           SKY/WX    TMP DP  RH WIND       PRES   REMARKS
HARRISBURG*    CLOUDY    72  72 100 CALM      29.96S
ROBINSON*      CLOUDY    76  75  96 S6        29.92S
$$

ABBREVIATIONS USED IN REMARKS
   TC - TEMPERATURE IN CELSIUS
  WCI - WIND CHILL INDEX
   HX - HEAT INDEX
  VSB - VISIBILITY
$$



USA.gov is the U.S. government's official web portal to all federal, state and local government web resources and services.